Probability
0 0 0 0 0 0 0 0 0 0 0 0 0 0 0 0 0 1 2 3 5 8 9 8 6 4 2 1 0 0 0 0 1 3 5 5 3 1 0 0 0 0 0 0
0 0 0 0 0 0 0 0 0 0 0 0 0 0 0 0 0 0 1 1 3 6 8 10 9 7 3 1 0 0 0 0 2 3 4 3 3 2 1 0 0 0 0 0
0 0 0 0 0 0 0 0 0 0 0 0 0 0 0 0 0 0 0 0 1 4 8 12 12 9 3 1 0 0 0 0 1 3 3 3 3 2 1 0 0 0 0 0
0 0 0 0 0 0 0 0 0 0 0 0 0 0 0 0 0 0 0 0 1 4 8 12 13 10 5 2 1 1 1 0 1 3 5 5 3 1 1 0 0 0 0 0
0 0 0 0 0 0 0 0 0 0 0 0 0 0 0 0 0 0 0 0 0 2 7 12 14 12 8 5 2 2 1 1 0 2 5 6 4 1 0 0 0 0 0 0
0 0 0 0 0 0 0 0 0 0 0 0 0 0 0 0 1 1 0 0 1 2 6 11 14 14 11 7 4 2 1 1 0 1 3 4 3 1 0 0 0 0 0 0
0 0 0 0 0 0 0 0 0 0 0 0 0 0 0 0 1 1 1 1 3 3 4 8 13 14 12 7 4 2 1 1 0 0 1 2 2 1 1 0 0 0 0 0
0 0 0 0 0 0 0 0 0 0 0 0 0 0 1 1 1 2 1 2 3 4 4 6 10 12 10 6 4 3 2 1 1 1 1 2 2 2 1 0 0 0 0 0
0 0 0 0 0 0 0 0 0 0 0 0 0 0 1 2 2 3 3 3 3 4 4 5 8 9 7 5 4 3 2 2 2 2 2 1 1 1 1 0 0 0 0 0
0 0 0 0 0 0 0 0 0 0 0 0 0 0 1 1 2 3 3 4 4 3 3 4 6 7 6 5 5 4 3 2 2 2 1 0 0 0 0 0 0 0 0 0
0 0 0 0 0 0 0 0 0 0 0 0 0 0 0 1 1 3 3 3 4 3 3 5 7 8 8 7 6 5 3 2 1 1 0 0 0 0 0 0 0 0 0 0
0 0 0 0 0 0 0 0 0 0 0 0 0 0 0 1 2 3 4 3 3 3 5 7 10 9 8 7 5 3 2 0 0 0 0 0 0 0 0 0 0 0 0 0
0 0 0 0 0 1 1 0 0 0 0 0 0 0 0 1 3 5 4 4 3 4 5 8 10 9 8 6 4 2 1 0 0 0 0 0 0 0 0 0 0 0 0 0
0 0 0 0 0 1 1 0 0 0 0 0 0 0 0 1 3 4 4 3 3 4 5 7 9 9 8 6 3 1 0 0 0 1 1 0 0 0 0 0 0 0 0 0
0 0 0 0 0 1 1 0 0 0 0 0 0 0 0 1 2 2 2 2 2 3 5 6 7 8 8 6 3 1 1 0 0 1 1 0 0 0 0 0 0 0 0 0
0 0 0 0 0 0 0 0 0 0 0 0 0 0 0 1 1 1 1 1 1 2 4 5 6 7 8 6 4 2 2 1 0 1 1 0 0 0 0 0 0 0 0 0
0 0 0 0 0 0 0 0 0 0 0 0 0 0 0 0 1 1 1 1 1 1 4 5 5 6 7 6 4 2 1 0 0 1 1 1 0 0 0 0 0 0 0 0
0 0 0 0 0 0 0 0 0 0 0 0 0 0 0 0 1 1 2 3 3 2 4 5 5 6 7 6 4 1 0 0 0 1 1 1 0 0 0 0 0 0 0 0
0 0 0 0 0 0 0 0 0 0 0 0 0 0 0 1 2 2 3 3 4 4 4 5 5 7 7 5 3 1 0 0 0 0 0 0 0 0 0 0 0 0 1 1
0 0 0 0 0 0 0 0 0 0 0 0 0 0 0 1 2 3 3 3 4 5 5 5 5 6 5 4 2 1 0 0 0 0 0 0 0 0 0 0 0 1 1 2
0 0 0 0 0 0 0 0 0 0 0 0 0 0 0 0 1 1 3 3 4 6 6 5 5 4 3 2 1 0 0 0 0 0 0 0 0 0 0 0 0 1 1 1
0 0 0 0 0 0 0 0 0 0 0 0 0 0 0 0 0 1 3 4 5 5 5 4 4 3 2 1 0 0 0 0 0 0 0 0 0 0 0 0 0 0 0 0
0 0 0 0 0 0 0 0 0 0 0 0 0 0 0 0 1 2 3 3 4 4 4 3 3 3 2 1 0 0 0 0 0 0 0 0 0 0 0 0 0 0 0 0
0 0 0 0 0 0 0 0 0 0 0 0 0 0 0 0 1 2 2 2 3 3 3 2 3 3 3 1 0 0 0 0 0 0 0 0 0 0 0 0 0 0 0 0
0 0 0 0 0 0 0 0 0 0 0 0 0 0 0 0 0 1 2 2 3 3 2 1 2 3 2 1 0 0 0 0 0 0 1 1 0 0 0 0 0 0 0 0
0 0 0 0 0 0 0 0 0 0 0 0 0 0 0 0 0 1 2 3 3 3 2 1 1 3 2 1 0 0 0 0 0 0 1 1 1 0 0 0 0 0 0 0
Wind_Speed
7 5 4 5 6 5 5 5 3 2 2 3 4 4 6 6 5 5 5 5 6 6 7 6 5 4 3 3 4 4 3 3 3 2 2 2 1 1 1 1 2 2 2 3
6 6 6 5 4 6 7 5 3 1 2 3 4 4 5 6 7 5 5 5 5 6 7 6 6 5 3 3 3 3 3 3 3 2 1 1 2 1 1 1 1 1 2 2
6 4 4 5 5 6 6 5 4 3 3 6 4 4 5 7 6 5 3 3 4 5 7 6 5 5 4 3 3 3 3 3 3 3 2 1 1 1 1 1 1 1 2 2
6 4 5 5 5 7 5 4 5 5 5 4 5 3 6 7 7 6 5 5 5 5 6 6 5 5 4 3 2 2 2 2 3 3 2 1 1 1 1 1 1 1 1 1
4 4 5 6 5 6 4 4 7 8 7 6 7 6 5 8 7 6 6 5 5 5 6 7 6 5 4 3 2 1 2 2 2 2 2 2 1 0 1 1 2 1 0 1
6 5 5 5 5 5 5 7 9 9 6 7 7 5 2 3 5 6 5 5 5 5 6 6 6 5 4 3 2 1 2 1 1 1 2 2 1 1 1 1 1 1 1 1
8 8 5 5 6 5 6 6 4 4 5 4 3 2 3 4 4 5 5 5 5 5 6 6 6 5 4 3 2 1 1 1 1 1 1 1 1 2 2 1 1 1 0 1
7 6 6 6 6 5 7 6 3 4 3 2 3 2 5 6 5 5 5 5 5 5 5 6 6 5 4 4 2 1 1 1 2 1 0 1 1 1 1 1 1 1 1 1
6 3 3 4 5 6 6 5 6 6 8 5 2 4 5 5 5 5 5 5 5 4 5 5 6 5 4 4 3 2 2 1 2 1 1 1 1 1 1 1 1 1 1 1
7 5 4 4 5 8 7 5 4 4 4 5 3 1 3 5 5 5 5 5 4 4 5 5 5 5 4 4 3 2 1 2 2 1 1 1 1 2 1 1 1 0 1 1
8 8 6 6 7 6 6 7 5 4 4 4 3 1 3 4 4 4 4 4 4 4 4 5 5 5 4 4 3 2 2 2 2 1 0 1 1 2 1 1 1 1 0 1
4 6 7 6 3 3 5 6 5 4 4 5 4 0 3 3 4 4 3 3 3 4 4 4 5 5 4 3 3 2 2 2 2 1 0 1 1 1 1 1 0 1 1 0
5 6 6 4 4 6 7 6 6 6 5 5 4 1 2 4 4 3 3 3 3 4 5 4 4 4 3 3 3 2 2 2 2 1 1 1 1 2 1 1 1 1 0 1
3 7 8 7 5 4 6 7 7 7 5 6 5 3 1 2 2 3 3 3 3 4 5 4 3 3 3 3 3 2 2 2 2 2 1 1 1 1 1 1 2 1 1 1
5 8 11 10 9 8 9 9 8 9 9 8 6 5 3 1 1 2 2 2 2 3 3 4 3 3 3 2 2 2 2 2 2 2 1 1 1 2 2 2 1 1 2 1
6 9 10 11 9 9 10 10 10 10 9 9 8 6 2 1 2 1 2 3 2 2 3 3 2 2 3 3 2 2 2 2 2 2 1 1 2 2 1 1 0 1 1 1
6 8 8 9 9 9 10 8 8 7 7 7 7 4 1 1 1 2 2 3 2 2 3 2 1 1 1 2 3 2 2 2 2 2 2 1 2 2 1 1 0 0 1 1
8 9 6 7 8 10 3 0 1 4 5 4 3 2 1 1 2 2 3 3 2 2 2 1 0 1 1 1 2 2 2 2 2 2 2 1 1 1 1 1 1 1 1 1
8 7 6 5 8 8 4 2 2 3 4 3 3 2 2 2 1 2 4 4 3 2 2 1 1 1 0 1 2 2 2 2 2 2 2 1 1 1 1 2 2 1 1 1
7 7 7 7 8 7 1 2 2 2 3 2 2 1 1 1 1 1 3 3 3 3 2 1 1 1 1 1 1 2 2 2 1 2 2 2 2 1 1 1 1 1 1 1
6 7 9 10 9 5 2 2 1 2 1 3 2 2 1 1 1 1 2 3 3 2 2 1 1 1 1 1 1 1 1 1 1 1 2 2 1 1 1 1 1 1 1 1
6 5 7 7 9 5 2 2 1 2 3 3 3 2 3 2 2 2 2 2 2 2 1 1 1 1 1 0 1 1 1 1 1 1 2 1 1 1 1 1 1 1 1 1
5 4 3 3 2 2 1 2 2 3 4 4 3 3 2 2 1 1 1 1 1 1 0 0 0 0 0 0 1 1 0 1 1 1 2 1 1 1 1 1 1 1 1 1
5 5 5 5 4 3 3 3 3 3 3 4 3 3 2 2 2 0 0 0 0 0 0 0 0 0 0 1 1 1 0 1 1 2 2 1 1 1 0 0 0 0 0 0
6 6 7 8 6 5 4 3 4 3 3 3 3 2 2 2 2 1 1 1 1 0 0 0 1 1 1 1 1 1 1 1 1 2 2 1 1 1 0 0 0 0 0 0
8 8 8 7 6 7 5 4 3 4 4 3 3 3 2 2 3 3 1 1 0 1 1 1 1 1 1 1 1 1 1 1 1 1 1 1 1 1 1 1 1 2 1 0
Wind_Direction
217 224 234 236 240 269 286 285 273 225 181 218 225 205 178 175 179 179 175 164 161 159 152 141 142 134 129 123 116 117 113 110 109 99 101 108 105 96 87 90 64 48 51 61
225 231 245 253 245 255 265 273 275 254 182 225 233 221 185 172 177 181 176 163 160 151 141 145 143 128 125 118 116 124 125 125 128 123 122 136 129 126 103 83 78 52 52 71
234 249 243 252 260 266 257 266 270 277 265 245 227 229 200 168 165 166 168 147 136 151 147 148 139 132 136 129 130 133 135 140 135 123 99 87 86 103 108 99 88 64 68 72
240 248 249 246 255 271 265 270 273 262 249 246 224 237 193 176 174 171 172 163 147 144 137 139 135 129 126 114 114 123 129 125 122 127 123 132 154 175 173 144 126 96 73 84
238 236 249 254 263 274 286 283 268 263 263 263 240 243 188 171 176 172 169 159 150 146 133 134 138 134 127 112 101 105 120 116 119 139 142 140 137 149 108 106 120 123 124 88
246 239 248 267 268 264 275 268 257 249 250 253 240 229 156 181 160 158 155 155 150 146 136 134 132 125 119 117 113 87 94 97 126 144 137 144 159 148 127 134 153 170 149 146
228 219 221 245 258 244 252 269 263 234 224 236 228 209 128 118 116 139 153 155 147 139 133 134 129 126 125 127 126 121 108 103 95 92 138 159 156 152 159 164 153 143 141 147
257 222 203 220 243 259 259 260 274 284 284 288 238 173 114 107 105 116 132 137 131 135 134 134 133 132 131 129 129 120 100 97 103 100 72 107 147 142 138 154 139 148 161 175
290 262 170 194 237 259 269 265 276 282 289 284 233 128 122 111 121 129 127 129 132 136 139 135 134 135 137 140 140 134 115 122 117 106 86 84 89 109 120 123 103 150 184 162
290 283 242 200 222 227 256 280 287 279 288 281 270 177 150 154 145 144 143 138 140 142 140 137 136 141 140 132 128 118 105 97 108 107 138 150 136 123 140 143 134 54 38 75
284 275 245 219 224 241 233 243 250 263 267 281 296 27 84 130 134 147 149 143 141 142 139 139 137 139 129 123 127 129 122 111 109 117 150 164 139 131 127 137 144 122 61 44
296 289 268 236 221 232 257 264 269 267 277 281 280 3 85 92 116 114 117 123 123 122 126 129 130 128 131 136 131 130 125 114 109 104 57 43 81 87 104 103 93 118 144 134
327 284 278 222 210 213 236 244 262 273 272 269 269 199 99 73 82 101 106 105 111 118 118 118 124 139 143 139 137 142 129 128 127 126 111 74 84 75 63 58 44 26 49 84
280 269 271 277 297 283 256 261 264 268 261 267 270 265 292 54 62 76 89 91 109 119 124 126 128 131 131 139 139 139 150 144 137 132 139 113 104 97 71 59 42 18 12 45
252 267 276 277 281 283 277 270 267 267 271 272 278 279 277 318 72 89 106 103 94 112 124 134 144 143 135 137 142 135 141 137 123 115 115 113 108 85 68 57 39 15 8 12
246 269 278 276 270 271 269 265 259 259 269 273 276 283 312 44 81 106 104 105 106 114 121 116 123 131 146 154 144 133 133 128 126 129 129 119 116 113 115 115 88 29 1 341
260 263 276 278 279 271 257 248 247 248 258 267 274 288 323 345 52 66 74 85 84 91 99 108 120 128 157 156 149 143 153 152 149 140 136 133 139 148 158 155 136 270 259 283
265 273 273 276 279 259 254 75 272 266 265 278 287 304 331 58 79 78 83 90 82 82 92 96 94 114 144 134 143 141 139 148 154 147 144 135 142 151 161 174 199 233 243 234
254 263 268 266 265 264 256 244 261 267 274 303 299 327 15 30 109 87 66 62 73 70 75 95 62 55 124 144 141 138 147 157 151 152 161 157 147 169 189 202 220 231 232 239
239 247 250 259 264 264 261 40 352 284 259 8 349 360 31 39 252 115 74 71 68 62 54 60 58 38 29 85 123 146 161 156 162 170 173 167 167 176 206 212 237 254 229 228
223 231 236 249 258 266 346 346 309 245 345 27 357 2 3 288 2 85 81 79 79 70 48 51 58 57 29 86 135 165 170 183 182 179 165 167 179 173 186 219 252 254 232 229
258 248 242 243 246 247 11 323 290 2 9 2 1 9 21 24 46 63 67 68 82 79 60 84 91 57 30 103 155 178 194 171 134 152 163 167 178 192 183 189 261 260 217 225
262 271 282 274 264 355 6 354 354 348 334 341 348 13 28 4 358 55 71 54 58 79 71 100 111 86 27 50 189 219 218 142 149 153 174 186 190 174 159 183 251 269 215 204
278 293 277 272 269 276 287 305 315 325 318 330 349 358 345 317 312 295 215 208 280 258 177 353 191 200 273 260 281 240 212 179 181 182 181 186 191 191 182 175 195 254 305 213
291 294 286 277 274 284 280 298 307 312 315 329 340 332 330 320 309 286 255 230 236 289 250 224 218 221 250 250 240 211 186 180 201 197 189 189 181 156 121 24 342 221 210 202
265 267 265 272 279 275 276 281 311 309 301 304 307 310 304 292 290 286 271 257 253 255 281 288 273 251 258 248 210 180 186 199 210 218 204 183 171 170 172 153 17 6 310 243